Location: Alando
(42.3054°N, 9.2895°E)
Time: 09:20:44
(UTC+00:00)

Cosmos 1980 Rocket - Pass Details

Date: 09 April 2020
Orbit: 828 x 851 km, 71.0° (Epoch: 04 June)

Event Time Altitude Azimuth Distance (km) Brightness Sun altitude
Rises 21:38:18 0° 336° (NNW) 3,388 6.4 -34.2°
Reaches altitude 10° 21:40:44 10° 337° (NNW) 2,453 5.4 -34.4°
Enters shadow 21:44:18 41° 342° (NNW) 1,205 3.3 -34.8°
